Hourly Data Report for October 02, 2019

SAINT JOHN A
NEW BRUNSWICK
Current Station Operator: NAVCAN

45°18'58.000" N
65°53'24.000" W
108.80 m
8104901
71609
YSJ

Download Data

Hourly Data (October 2019)
Hourly Data Report for October 2, 2019
TIME
LST
Temp Definition
°C
Dew Point Definition
°C
Rel Hum Definition
%
Precip. Amount Definition
mm

Wind Dir Definition
10's deg

Wind Spd Definition
km/h
Visibility Definition
km
Stn Press Definition
kPa
Hmdx Definition


Wind Chill Definition


Weather Definition


00:00 12.4 12.4 100   22 30 3.2 99.21     Drizzle,Fog
01:00 13.1 13.1 100   23 29 0.8 99.12     Drizzle,Fog
02:00 13.3 13.3 100   23 23 0.8 99.03     Drizzle,Fog
03:00 13.6 13.6 100   25 10 0.8 98.95     Drizzle,Fog
04:00 13.9 13.9 100   27 9 0.8 98.91     Drizzle,Fog
05:00 14.0 14.0 100   27 12 1.2 98.95     Drizzle,Fog
06:00 14.1 13.7 97   34 15 4.8 99.01     Drizzle,Fog
07:00 13.2 11.6 90   35 31 19.3 99.10     LegendNANA
08:00 11.9 10.4 90   33 26 24.1 99.17     Cloudy
09:00 10.4 8.1 86   1 28 24.1 99.30     LegendNANA
10:00 10.1 7.6 84   1 24 24.1 99.35     LegendNANA
11:00 9.3 7.0 85   36 22 24.1 99.41     Cloudy
12:00 9.8 6.8 82   35 22 24.1 99.47     LegendNANA
13:00 9.5 6.2 79   35 21 24.1 99.51     LegendNANA
14:00 9.3 6.0 80   1 16 24.1 99.55     Cloudy
15:00 9.1 5.0 76   35 20 24.1 99.65     LegendNANA
16:00 7.9 5.0 82   4 28 24.1 99.74     Rain Showers
17:00 8.2 5.0 80   2 16 24.1 99.83     Mostly Cloudy
18:00 7.6 4.2 79   36 14 24.1 99.89     LegendNANA
19:00 6.0 4.4 89   3 4 24.1 99.99     LegendNANA
20:00 3.4 2.9 97   30 4 24.1 100.08     Mostly Cloudy
21:00 6.0 4.2 88   36 11 24.1 100.15     LegendNANA
22:00 6.1 3.6 84   35 18 24.1 100.21     LegendNANA
23:00 5.7 4.0 89   34 20 24.1 100.28     Cloudy

Notes on Data Quality.

Legend

  • E = Estimated
  • M = Missing
  • NA = Not Available*
  • [empty] = Indicates an unobserved value
Date modified: